Probability
0 0 0 0 0 0 0 0 0 0 0 0 0 0 0 0 0 0 0 0 0 0 0 0 0 0 0 0 0 0 0 0 0 0 2 3 3 4 4 4 4 4 3 2
0 0 0 0 0 0 0 0 0 0 0 0 0 0 0 0 0 0 0 0 0 0 0 0 0 0 0 0 0 0 0 0 0 0 2 2 2 2 3 5 6 5 4 3
0 0 0 0 0 0 0 0 0 0 0 0 0 0 0 0 0 0 0 0 0 0 0 0 0 0 0 0 0 0 0 0 0 0 1 1 1 1 3 5 6 6 5 4
0 0 0 0 0 0 0 0 0 0 0 0 0 0 0 0 0 0 0 0 0 0 0 0 0 0 0 0 0 0 0 0 0 0 0 0 1 1 2 3 4 5 4 3
0 0 0 0 0 0 0 0 0 0 0 0 0 0 0 0 0 0 0 0 0 0 0 0 0 0 0 0 0 0 0 0 0 0 0 0 0 1 1 1 1 2 2 2
0 0 0 0 0 0 0 0 0 0 0 0 0 0 0 0 0 0 0 0 0 0 0 0 0 0 0 0 0 0 0 0 0 0 0 0 0 0 0 0 0 1 1 1
0 0 0 0 0 0 0 0 0 0 0 0 0 0 0 0 0 0 0 0 0 0 0 0 0 0 0 0 0 0 0 0 0 0 0 0 0 0 0 0 0 0 0 1
0 0 0 0 0 0 0 0 0 0 0 0 0 0 0 0 0 0 0 0 0 0 0 0 0 0 0 0 0 0 0 0 0 0 0 0 0 0 0 0 0 0 0 0
0 0 0 0 0 0 0 0 0 0 0 0 0 0 0 0 0 0 0 0 0 0 0 0 0 0 0 0 0 0 0 0 0 0 0 0 0 0 0 0 0 0 0 0
0 0 0 0 0 0 0 0 0 0 0 0 0 0 0 0 0 0 0 0 0 0 0 0 0 0 0 0 0 0 0 0 0 0 0 0 0 0 0 0 0 0 0 0
0 0 0 0 0 0 0 0 0 0 0 0 0 0 0 0 0 0 0 0 0 0 0 0 0 0 0 0 0 0 0 0 0 0 0 0 0 0 0 0 0 0 0 0
0 0 0 0 0 0 0 0 0 0 0 0 0 0 0 0 0 0 0 0 0 0 0 0 0 0 0 0 0 0 0 0 0 0 0 0 0 0 0 0 0 0 0 0
0 0 0 0 0 0 0 0 0 0 0 0 0 0 0 0 0 0 0 0 0 0 0 0 0 0 0 0 0 0 0 0 0 0 0 0 0 0 0 0 0 0 0 0
0 0 0 0 0 0 0 0 0 0 0 0 0 0 0 0 0 0 0 0 0 0 0 0 0 0 0 0 0 0 0 0 0 0 0 0 0 0 0 0 0 0 0 0
0 0 0 0 0 0 0 0 0 0 0 0 0 0 0 0 0 0 0 0 0 0 0 0 0 0 0 0 0 0 0 0 0 0 0 0 0 0 0 0 0 0 0 0
0 0 0 0 0 0 0 0 0 0 0 0 0 0 0 0 0 0 0 0 0 0 0 0 0 0 0 0 0 0 0 0 0 0 0 0 0 0 0 0 0 0 0 0
0 0 0 0 0 0 0 0 0 0 0 0 0 0 0 0 0 0 0 0 0 0 0 0 0 0 0 0 0 0 0 0 0 0 0 0 0 0 0 0 0 0 0 0
0 0 0 0 0 0 0 0 0 0 0 0 0 0 0 0 0 0 0 0 0 0 0 0 0 0 0 0 0 0 0 0 0 0 0 0 0 0 0 0 0 0 0 0
0 0 0 0 0 0 0 0 0 0 0 0 0 0 0 0 0 0 0 0 0 0 0 0 0 0 0 0 0 0 0 0 0 0 0 0 0 0 0 0 0 0 0 0
0 0 0 0 0 0 0 0 0 0 0 0 0 0 0 0 0 0 0 0 0 0 0 0 0 0 0 0 0 0 0 0 0 0 0 0 0 0 0 0 0 0 0 0
0 0 0 0 0 0 0 0 0 0 0 0 0 0 0 0 0 0 0 0 0 0 0 0 0 0 0 0 0 0 0 0 0 0 0 0 0 0 0 0 0 0 0 0
0 0 0 0 0 0 0 0 0 0 0 0 0 0 0 0 0 0 0 0 0 0 0 0 0 0 0 0 0 0 0 0 0 0 0 0 0 0 0 0 0 0 0 0
0 0 0 0 0 0 0 0 0 0 0 0 0 0 0 0 0 0 0 0 0 0 0 0 0 0 0 0 0 0 0 0 0 0 0 0 0 0 0 0 0 0 0 0
0 0 0 0 0 0 0 0 0 0 0 0 0 0 0 0 0 0 0 0 0 0 0 0 0 0 0 0 0 0 0 0 0 0 0 0 0 0 0 0 0 0 0 0
0 0 0 0 0 0 0 0 0 0 0 0 0 0 0 0 0 0 0 0 0 0 0 0 0 0 0 0 0 0 0 0 0 0 0 0 0 0 0 0 0 0 0 0
0 0 0 0 0 0 0 0 0 0 0 0 0 0 0 0 0 0 0 0 0 0 0 0 0 0 0 0 0 0 0 0 0 0 0 0 0 0 0 0 0 0 0 0
Wind_Speed
4 5 6 10 9 6 7 5 3 3 2 5 7 9 11 9 6 9 10 11 12 14 13 9 10 11 11 11 13 15 15 14 11 9 10 10 11 9 9 10 12 14 14 15
4 4 8 6 5 3 3 2 2 2 1 2 5 10 10 9 10 11 12 13 13 12 10 10 8 8 11 13 14 14 15 14 13 12 10 7 6 5 6 7 10 13 14 15
9 7 6 6 5 6 5 6 5 3 1 2 3 9 7 7 6 8 10 11 11 12 13 10 8 9 9 11 13 13 15 15 14 11 5 3 3 3 5 8 10 12 14 14
6 4 5 6 6 8 6 5 5 3 1 4 1 7 8 6 7 9 11 10 11 10 9 7 6 7 9 11 10 11 11 11 10 10 9 10 10 10 10 7 6 8 11 13
8 6 6 7 8 9 6 2 3 2 2 2 1 4 10 4 7 11 12 11 9 6 5 5 4 5 5 5 5 7 7 8 8 9 11 11 10 9 5 4 6 7 8 11
5 3 7 8 4 7 8 8 8 6 4 4 6 7 10 6 9 9 9 7 6 3 1 1 1 1 1 1 2 4 5 6 7 8 9 11 11 9 7 7 7 7 6 8
3 2 1 4 7 3 6 8 3 2 2 8 3 6 12 10 9 8 7 6 3 0 1 1 1 2 2 2 2 3 5 5 5 7 8 9 10 9 11 9 9 8 7 7
10 7 8 6 9 10 8 11 10 9 7 6 3 10 11 8 6 5 4 1 1 2 1 0 0 1 1 1 1 2 3 3 4 5 6 6 7 6 7 9 8 9 8 8
12 9 4 7 5 14 9 6 8 7 3 2 8 8 10 5 3 3 1 2 2 2 1 1 0 1 0 0 1 1 2 2 3 4 5 5 6 7 7 7 7 6 6 6
10 7 3 2 3 0 8 10 6 7 6 6 8 7 7 4 7 5 1 1 2 2 2 1 0 0 0 0 0 0 1 2 3 3 4 4 5 6 6 6 7 7 7 7
7 8 3 4 10 12 8 6 7 7 7 8 6 10 8 8 6 4 1 0 1 1 1 2 2 1 2 2 1 1 1 2 2 3 4 5 5 5 6 6 8 7 7 7
7 7 5 7 5 6 8 11 11 9 7 6 5 10 3 5 4 4 3 1 2 3 2 2 3 3 4 3 3 3 3 3 4 3 4 5 5 5 6 7 7 7 7 7
8 8 5 1 2 3 5 5 7 5 7 7 9 10 1 4 4 4 3 3 3 4 5 5 5 4 4 4 4 4 4 4 5 4 4 5 6 6 7 7 7 6 7 7
5 5 9 13 7 8 7 8 8 8 7 9 14 10 6 3 2 1 1 2 2 3 3 4 4 4 4 4 4 5 5 5 5 5 5 6 7 7 7 7 6 6 6 7
4 4 3 1 2 4 5 8 10 12 12 12 11 11 10 5 2 1 1 1 3 3 3 2 3 3 4 5 5 5 6 5 5 5 5 7 7 6 6 6 6 6 6 7
4 4 3 2 3 2 4 8 10 11 10 11 9 13 5 3 2 0 1 2 3 3 3 3 4 4 5 6 6 6 6 6 5 5 6 7 6 6 6 6 6 6 6 6
5 6 5 4 3 2 10 13 12 8 7 8 13 11 3 3 2 2 1 3 3 3 3 4 4 4 4 5 6 7 8 7 6 6 7 6 6 6 7 6 5 6 6 6
8 6 4 3 4 10 8 4 9 10 10 10 8 4 3 4 3 3 4 4 2 2 3 4 5 6 5 5 5 6 6 6 6 7 7 6 6 7 6 6 6 6 5 5
6 8 5 5 5 7 9 5 8 9 8 7 8 4 2 2 4 2 2 2 1 1 2 3 4 5 6 6 7 7 6 6 6 7 7 7 7 7 7 7 7 5 4 5
4 5 6 6 6 10 10 4 3 6 6 4 5 5 3 4 3 3 0 1 1 1 2 3 4 4 6 6 6 7 7 7 7 8 8 8 7 7 7 7 6 5 4 5
7 6 8 7 6 10 8 3 5 9 8 4 5 5 4 4 4 2 2 2 2 2 3 3 4 4 5 6 6 6 7 7 7 7 8 7 7 6 6 6 5 4 3 3
10 8 8 7 7 12 5 5 8 5 4 5 5 4 4 3 2 2 3 3 4 4 4 4 4 5 5 5 5 7 7 7 7 7 7 7 7 5 4 4 4 3 2 3
9 10 8 9 8 2 4 5 4 6 6 5 4 3 3 3 3 3 3 4 4 5 5 4 4 6 5 4 4 7 7 7 7 7 7 7 6 5 4 3 3 2 2 2
4 3 4 4 4 2 3 4 4 4 5 4 4 4 3 3 4 4 5 4 4 4 4 4 5 6 7 5 5 6 7 6 6 7 7 6 5 5 4 2 2 2 2 2
7 6 5 4 2 2 1 3 4 3 3 3 3 3 4 4 5 5 5 5 4 4 3 3 5 7 8 6 6 5 6 6 6 7 7 6 5 4 3 2 2 2 2 3
5 7 8 7 7 6 4 3 3 4 3 3 3 2 2 2 4 5 5 5 5 5 5 5 5 6 7 7 7 6 5 5 6 6 6 5 4 3 3 2 1 0 1 1
Wind_Direction
120 106 178 195 188 177 166 165 203 249 211 170 223 255 269 281 277 260 252 246 244 244 247 243 230 220 213 209 204 203 201 200 190 188 194 198 204 201 201 202 199 196 194 191
91 220 211 192 187 183 189 207 236 296 28 182 256 267 265 260 250 241 242 245 245 249 261 254 241 223 212 209 207 205 203 198 196 199 199 198 195 198 202 200 202 201 198 195
170 217 188 166 175 189 213 202 208 218 360 342 303 296 284 275 256 263 252 247 247 241 246 249 242 230 218 215 209 207 205 200 198 192 171 155 156 171 196 205 208 205 202 199
204 225 151 166 190 163 213 208 184 177 136 282 331 290 282 275 289 279 271 260 252 247 243 246 247 241 226 223 212 208 202 198 192 182 181 183 197 209 213 209 207 202 204 204
217 196 170 183 196 169 188 130 129 118 154 289 279 250 279 285 269 263 260 259 257 253 239 245 252 250 245 226 203 198 190 190 185 186 192 196 210 217 206 195 201 203 204 207
206 206 188 187 157 155 129 73 55 48 67 271 217 204 272 236 224 245 260 264 264 269 243 238 302 350 349 66 150 163 171 183 181 187 195 202 211 208 203 205 207 209 209 211
187 233 200 135 101 96 117 100 51 333 321 250 234 224 250 244 239 239 257 273 284 357 107 91 79 54 44 71 119 146 162 181 183 190 201 208 213 209 213 213 212 212 214 216
172 218 207 184 156 160 176 152 166 192 221 265 258 233 251 257 272 257 250 255 37 37 41 63 112 70 35 69 106 141 169 187 188 198 211 215 215 214 223 219 215 216 220 219
180 213 205 197 174 147 159 191 163 138 144 269 260 269 297 285 273 260 262 55 36 3 351 328 15 35 17 95 154 183 185 202 213 216 218 222 220 220 226 224 220 223 223 217
155 189 215 198 102 226 155 147 123 151 178 235 264 251 240 220 213 230 269 24 357 1 7 14 348 302 343 33 26 114 207 224 236 235 231 233 231 229 230 227 227 225 222 215
156 158 161 157 187 176 144 163 164 163 171 177 247 259 219 205 199 177 174 51 18 11 345 333 336 350 12 22 19 336 289 277 271 258 253 252 249 241 235 234 233 228 224 216
169 146 183 220 236 201 184 180 162 173 208 196 216 260 238 174 158 144 129 62 39 38 30 22 18 15 13 1 350 334 317 299 284 274 264 259 259 251 245 244 241 231 228 221
154 148 142 319 249 199 212 206 188 163 155 183 205 255 279 117 105 103 101 70 43 36 31 24 21 12 1 350 342 330 320 305 300 293 280 276 269 259 254 253 248 236 230 227
136 155 184 199 193 172 190 200 188 169 192 215 223 226 197 180 120 80 88 85 72 53 40 29 14 1 352 347 340 334 326 322 319 308 287 276 271 266 263 261 254 244 235 232
123 175 192 180 125 150 183 196 197 204 209 214 229 229 222 206 225 229 173 98 68 45 35 17 353 340 338 338 335 332 326 325 319 304 290 279 279 277 272 265 260 252 242 237
127 155 158 204 196 194 234 228 215 219 222 232 248 252 232 219 217 306 31 61 52 33 12 1 353 345 341 339 334 329 322 321 320 307 292 292 295 289 278 270 265 257 250 243
147 147 166 207 170 165 242 221 209 211 207 201 233 243 207 239 231 191 111 81 67 29 6 355 340 329 327 329 327 322 318 320 319 307 302 302 299 293 286 282 273 262 255 247
156 146 146 152 143 222 238 203 196 209 224 215 227 232 202 205 149 113 105 98 66 9 346 338 333 327 326 323 323 317 314 316 312 307 305 306 303 295 293 287 275 267 260 250
163 153 153 166 204 264 283 238 180 189 229 224 223 211 179 141 112 119 94 75 44 339 327 322 324 320 320 326 328 322 317 318 313 309 308 307 302 297 294 286 279 273 265 258
172 160 160 169 184 226 241 229 183 141 230 219 174 161 158 131 152 199 18 3 335 317 307 311 314 314 317 320 324 318 313 314 310 309 306 303 296 290 288 284 283 280 266 261
173 186 194 190 209 247 243 222 134 176 223 165 143 142 138 151 179 213 299 314 304 300 294 301 301 299 298 306 314 308 306 302 304 306 304 303 299 291 286 287 285 280 275 271
175 181 191 179 206 242 212 155 181 186 130 135 137 143 147 173 212 249 270 281 293 295 292 296 297 296 297 305 307 300 298 302 307 307 305 304 302 298 294 290 290 281 262 263
199 190 182 192 211 226 158 160 151 134 138 153 156 169 170 191 220 240 252 266 272 275 281 285 291 297 301 307 307 296 302 313 314 309 302 300 300 298 291 278 279 282 261 248
236 166 160 204 232 175 133 127 127 133 146 163 169 176 186 222 247 262 265 268 272 275 282 292 300 298 300 308 303 292 304 313 307 300 298 297 297 298 298 285 271 262 253 245
202 171 175 203 186 125 203 177 162 153 155 171 193 202 218 241 263 269 277 283 286 290 292 291 287 288 294 308 306 310 314 315 304 295 292 291 285 284 290 284 265 259 257 237
197 176 174 201 191 171 193 196 183 179 195 215 230 250 260 259 280 295 292 297 303 304 305 298 291 289 295 302 300 306 313 307 296 292 290 288 285 281 271 267 285 273 229 202